[[{"header":{"parameterUnit":"m.s-1","parameterCategory":1,"la1":30.2991,"la2":30.254,"lo1":-89.0895,"lo2":-89.0444,"dy":0.0017,"dx":0.0017,"nx":28,"ny":28,"refTime":"2025-01-30T09:00:00:Z","depth":0,"parameterNumber":2,"parameterNumberName":"U-component_of_WINDS"},"data":[0,0,0,0,0,0,0,0,0,0,0,0,0,0,0,0,0,0,0,0,0,0,0,0,0,0,0,0,0,0,0,0,0,0,0,0,0,0,0,0,0,0,0,0,0,0,0,0,0,0,0,0,0,0,0,0,0,0,-1.6967,-1.6968,0,-1.7041,-1.7042,-1.7043,-1.7079,-1.7079,-1.7079,-1.7079,-1.7156,-1.7158,-1.716,0,0,0,0,0,0,0,0,0,0,0,0,0,-1.6856,-1.6857,-1.6967,-1.6968,-1.6969,-1.7041,-1.7042,-1.7043,-1.7079,-1.7079,-1.7079,-1.7079,-1.7156,-1.7158,-1.7161,0,0,0,0,0,0,0,0,0,0,0,0,0,-1.6914,-1.6858,-1.6967,-1.6995,-1.6998,-1.7041,-1.7042,-1.7044,-1.7079,-1.7079,-1.7079,-1.7078,-1.7155,-1.7158,-1.7161,-1.7182,0,0,-1.7171,-1.7172,0,0,0,0,0,0,0,0,-1.6911,-1.6919,-1.699,-1.6993,-1.6997,-1.7051,-1.7032,-1.709,-1.7079,-1.7048,-1.7079,-1.7078,-1.7121,-1.7127,-1.7141,-1.7185,-1.7189,-1.7171,-1.7173,-1.7174,-1.7175,0,0,0,0,0,0,0,-1.6907,-1.6915,-1.6996,-1.6991,-1.6995,-1.7004,-1.7013,-1.7043,-1.7084,-1.7051,-1.7054,-1.7062,-1.7123,-1.7138,-1.7143,-1.719,-1.7171,-1.7174,-1.7176,-1.7177,-1.7254,-1.7255,0,0,0,0,0,0,-1.6898,-1.6912,-1.6994,-1.6999,-1.6953,-1.7006,-1.7016,-1.7033,-1.7084,-1.7092,-1.7062,-1.7063,-1.7133,-1.714,-1.7146,-1.7174,-1.7174,-1.7177,-1.7179,-1.7254,-1.7255,-1.7255,0,0,0,0,0,0,-1.6896,-1.6905,-1.6991,-1.6956,-1.6968,-1.7008,-1.7028,-1.7035,-1.705,-1.7092,-1.71,-1.707,-1.7133,-1.7142,-1.7173,-1.7177,-1.7178,-1.7181,-1.7254,-1.7254,-1.7255,-1.7229,0,0,0,0,0,0,-1.6892,-1.6904,-1.6912,-1.6956,-1.6969,-1.7016,-1.7028,-1.7036,-1.7055,-1.7058,-1.7102,-1.7109,-1.7134,-1.7168,-1.7176,-1.7182,-1.7184,-1.7254,-1.7254,-1.7255,-1.723,-1.7229,-1.7228,0,0,0,0,0,-1.6888,-1.6902,-1.6912,-1.6922,-1.698,-1.7016,-1.7024,-1.7052,-1.7055,-1.7064,-1.7091,-1.7107,-1.7175,-1.717,-1.718,-1.7187,-1.7254,-1.7254,-1.7255,-1.723,-1.7229,-1.7228,0,0,0,0,0,0,-1.6859,-1.6909,-1.692,-1.6949,-1.6978,-1.7022,-1.7033,-1.7049,-1.7078,-1.7079,-1.7113,-1.7123,-1.715,-1.7172,-1.7165,-1.7209,-1.7216,-1.7218,-1.7194,-1.7193,-1.7192,-1.7187,-1.7186,0,0,0,0,0,-1.6855,-1.6879,-1.6922,-1.6943,-1.6957,-1.6993,-1.7009,-1.7028,-1.706,-1.7072,-1.7102,-1.7132,-1.716,-1.7178,-1.7206,-1.7233,-1.7243,-1.7242,-1.7241,-1.724,-1.7242,-1.7258,-1.7258,-1.7256,-1.7256,-1.7256,0,0,-1.6849,-1.6879,-1.6893,-1.6938,-1.6963,-1.6987,-1.7003,-1.7028,-1.7047,-1.7076,-1.7107,-1.7129,-1.7165,-1.7194,-1.7208,-1.7213,-1.7244,-1.724,-1.7239,-1.7242,-1.7258,-1.7258,-1.7258,-1.7256,-1.7256,-1.7256,0,0,-1.685,-1.6875,-1.6896,-1.692,-1.6957,-1.698,-1.6985,-1.7026,-1.7042,-1.7073,-1.7096,-1.7119,-1.7166,-1.7191,-1.721,-1.722,-1.7236,-1.7228,-1.7222,-1.7237,-1.7237,-1.7238,-1.7241,-1.7242,-1.7229,-1.7229,-1.7229,0,-1.6838,-1.6875,-1.6904,-1.6928,-1.6948,-1.6975,-1.6996,-1.7018,-1.7062,-1.7075,-1.7079,-1.714,-1.7166,-1.7201,-1.7203,-1.7217,-1.7224,-1.7223,-1.7235,-1.7235,-1.7236,-1.724,-1.7241,-1.7228,-1.7228,-1.7228,-1.7228,0,-1.6858,-1.6884,-1.6896,-1.6938,-1.6958,-1.6981,-1.7013,-1.7031,-1.7048,-1.7071,-1.7102,-1.7134,-1.717,-1.7179,-1.7196,-1.7217,-1.7218,-1.7228,-1.7236,-1.7235,-1.7239,-1.7241,-1.7226,-1.7227,-1.7227,-1.7228,0,0,-1.6844,-1.69,-1.6904,-1.6923,-1.6965,-1.6986,-1.701,-1.7043,-1.7058,-1.7087,-1.7108,-1.7148,-1.7157,-1.7178,-1.7198,-1.7212,-1.7217,-1.722,-1.7221,-1.7219,-1.7242,-1.7234,-1.7236,-1.7228,-1.7228,-1.7229,-1.7239,0,-1.6851,-1.6894,-1.692,-1.6953,-1.6977,-1.7002,-1.7023,-1.7051,-1.7073,-1.7097,-1.7122,-1.715,-1.716,-1.7173,-1.7187,-1.7214,-1.7223,-1.7213,-1.7248,-1.7249,-1.7239,-1.7238,-1.723,-1.7238,-1.7241,-1.7241,-1.7241,0,-1.6865,-1.6893,-1.6928,-1.6967,-1.6978,-1.6996,-1.7029,-1.7052,-1.7084,-1.7099,-1.7123,-1.7143,-1.7169,-1.7174,-1.7211,-1.7204,-1.722,-1.7235,-1.7236,-1.7241,-1.7245,-1.7243,-1.7241,-1.7243,-1.7244,-1.7244,-1.7244,0,-1.6851,-1.6897,-1.6924,-1.694,-1.6986,-1.6998,-1.7018,-1.705,-1.7069,-1.7098,-1.711,-1.7142,-1.716,-1.7184,-1.7212,-1.7213,-1.7247,-1.7254,-1.726,-1.726,-1.7266,-1.7266,-1.7268,-1.7276,-1.7276,-1.7276,-1.7276,0,-1.6856,-1.6876,-1.6918,-1.6935,-1.6958,-1.6988,-1.7011,-1.7033,-1.7062,-1.7083,-1.7107,-1.7127,-1.7163,-1.7188,-1.721,-1.7237,-1.7245,-1.7258,-1.7264,-1.7256,-1.7255,-1.7267,-1.7268,-1.7276,-1.7276,-1.7276,-1.7276,0,-1.6844,-1.6873,-1.6904,-1.6945,-1.6956,-1.6971,-1.7007,-1.7024,-1.7047,-1.7074,-1.7082,-1.7118,-1.7148,-1.7179,-1.7219,-1.7234,-1.7261,-1.7269,-1.725,-1.7253,-1.7258,-1.7257,-1.7269,-1.7272,-1.7277,-1.7277,-1.7277,0,-1.6846,-1.6862,-1.6904,-1.692,-1.6939,-1.6965,-1.6984,-1.7014,-1.7033,-1.7071,-1.7083,-1.7115,-1.7142,-1.7188,-1.7219,-1.725,-1.7259,-1.7261,-1.7264,-1.7255,-1.7259,-1.7258,-1.726,-1.726,-1.7259,-1.7259,-1.7259,0,-1.6846,-1.6859,-1.6885,-1.6916,-1.6937,-1.6963,-1.699,-1.7002,-1.7037,-1.7057,-1.7088,-1.7108,-1.7149,-1.7181,-1.7215,-1.7237,-1.7254,-1.7258,-1.7261,-1.7253,-1.7242,-1.7248,-1.7247,-1.7258,-1.7258,-1.7258,-1.7258,-1.7258,-1.6841,-1.6857,-1.6889,-1.6917,-1.694,-1.6964,-1.6982,-1.7007,-1.7033,-1.7068,-1.7084,-1.7115,-1.7147,-1.7196,-1.7216,-1.7241,-1.7246,-1.7251,-1.7252,-1.7253,-1.7251,-1.7237,-1.7248,-1.7248,-1.7248,-1.7248,-1.7248,0,-1.6842,-1.6864,-1.6889,-1.6926,-1.6948,-1.6961,-1.6992,-1.7009,-1.7036,-1.7064,-1.709,-1.7125,-1.7155,-1.7187,-1.722,-1.7233,-1.7242,-1.7241,-1.724,-1.7245,-1.7245,-1.7239,-1.7233,-1.7233,-1.7233,-1.7233,-1.7233,-1.7233,-1.6846,-1.6872,-1.6889,-1.6928,-1.695,-1.6979,-1.6995,-1.7018,-1.7041,-1.7078,-1.7103,-1.7124,-1.7154,-1.7189,-1.7217,-1.7226,-1.7237,-1.7234,-1.7245,-1.7244,-1.7245,-1.7246,-1.7241,-1.7236,-1.7236,-1.7243,-1.7243,-1.7243]},{"header":{"parameterUnit":"m.s-1","parameterCategory":1,"la1":30.2991,"la2":30.254,"lo1":-89.0895,"lo2":-89.0444,"dy":0.0017,"dx":0.0017,"nx":28,"ny":28,"refTime":"2025-01-30T09:00:00:Z","depth":0,"parameterNumber":3,"parameterNumberName":"V-component_of_WINDS"},"data":[0,0,0,0,0,0,0,0,0,0,0,0,0,0,0,0,0,0,0,0,0,0,0,0,0,0,0,0,0,0,0,0,0,0,0,0,0,0,0,0,0,0,0,0,0,0,0,0,0,0,0,0,0,0,0,0,0,0,5.9354,5.9355,0,5.9378,5.9378,5.9378,5.9323,5.9322,5.932,5.9318,5.9339,5.9341,5.9344,0,0,0,0,0,0,0,0,0,0,0,0,0,5.9262,5.9264,5.9354,5.9355,5.9355,5.9378,5.9378,5.9378,5.9324,5.9321,5.9319,5.9317,5.9339,5.9341,5.9344,0,0,0,0,0,0,0,0,0,0,0,0,0,5.9295,5.9264,5.9354,5.9331,5.9329,5.9377,5.9378,5.9378,5.9324,5.9321,5.9319,5.9316,5.9338,5.9341,5.9344,5.9416,0,0,5.9354,5.9356,0,0,0,0,0,0,0,0,5.9293,5.9299,5.9334,5.9332,5.933,5.9345,5.9353,5.9391,5.9325,5.9326,5.9318,5.9315,5.9343,5.9346,5.9356,5.9417,5.9418,5.9354,5.9356,5.9358,5.9359,0,0,0,0,0,0,0,5.9291,5.9297,5.9363,5.9334,5.9332,5.9318,5.932,5.936,5.9349,5.9325,5.9322,5.9325,5.9342,5.9353,5.9356,5.9419,5.9354,5.9357,5.9359,5.9361,5.9544,5.9546,0,0,0,0,0,0,5.9292,5.9296,5.9363,5.9364,5.9305,5.9322,5.9324,5.9343,5.9348,5.9346,5.9327,5.9323,5.9348,5.9352,5.9356,5.9444,5.9358,5.9361,5.9363,5.9541,5.9544,5.9547,0,0,0,0,0,0,5.929,5.9299,5.9362,5.9329,5.9336,5.9327,5.9348,5.9345,5.9356,5.935,5.9347,5.9341,5.9347,5.9352,5.9403,5.9444,5.9362,5.9365,5.9537,5.9542,5.9546,5.9618,0,0,0,0,0,0,5.9288,5.9298,5.9326,5.933,5.9338,5.9408,5.935,5.9347,5.9362,5.9356,5.9362,5.936,5.9345,5.9398,5.9406,5.9447,5.9368,5.9534,5.9539,5.9544,5.9612,5.9625,5.9635,0,0,0,0,0,5.9285,5.9344,5.9328,5.9336,5.9372,5.9411,5.9415,5.9397,5.9365,5.9393,5.9389,5.936,5.9438,5.9404,5.9412,5.9455,5.9531,5.9538,5.9544,5.9607,5.9622,5.9635,0,0,0,0,0,0,5.9343,5.9344,5.9326,5.9388,5.94,5.9402,5.9436,5.9413,5.9434,5.9427,5.9403,5.9405,5.9461,5.9462,5.9425,5.9526,5.9479,5.9487,5.9524,5.9538,5.9549,5.9549,5.9371,0,0,0,0,0,5.9364,5.9396,5.9394,5.9449,5.9456,5.9445,5.9461,5.9447,5.9458,5.9462,5.9462,5.9473,5.9501,5.9519,5.9543,5.9611,5.9613,5.9645,5.9656,5.9666,5.9674,5.9713,5.9728,5.9569,5.9569,5.9569,0,0,5.9406,5.941,5.9431,5.9461,5.9469,5.9503,5.945,5.9487,5.9512,5.9467,5.9517,5.9517,5.9528,5.9589,5.9616,5.9592,5.9718,5.9674,5.9682,5.9685,5.9722,5.9737,5.975,5.9573,5.9572,5.9572,0,0,5.9501,5.9506,5.9555,5.9564,5.9576,5.9569,5.9581,5.9586,5.9585,5.9634,5.9603,5.9631,5.9678,5.9688,5.9699,5.98,5.9775,5.9808,5.9869,5.9908,5.992,5.9932,5.9971,5.9984,5.9816,5.9817,5.9817,0,5.9551,5.9602,5.9582,5.9623,5.9638,5.96,5.9649,5.9658,5.9678,5.9689,5.9662,5.9722,5.9726,5.9791,5.9816,5.9825,5.9839,5.9809,5.992,5.9931,5.9941,5.9978,5.9993,5.9821,5.982,5.982,5.9819,0,5.9665,5.9701,5.9738,5.9761,5.9779,5.9824,5.9811,5.9832,5.9816,5.9812,5.9863,5.9867,5.9894,5.9907,5.989,5.997,5.9955,5.9924,5.9877,5.9961,5.9996,6.0009,5.9827,5.9825,5.9824,5.9823,0,0,5.9798,5.981,5.9825,5.9836,5.9848,5.9875,5.9918,5.9945,5.9965,5.9979,6.0016,6.0058,6.003,6.0043,6.0027,6.0061,6.0145,6.0026,6.0026,6.0051,6.0236,6.0261,6.0278,6.0127,6.0129,6.0131,6.0236,0,5.9895,5.9971,5.9955,6.003,6.0064,6.0029,6.0067,6.0079,6.0076,6.0104,6.01,6.0131,6.0091,6.0099,6.013,6.0128,6.0182,6.012,6.0163,6.0164,6.0164,6.0295,6.0321,6.042,6.0249,6.0251,6.0252,0,6.0018,6.004,6.0119,6.0128,6.0142,6.0177,6.0202,6.0228,6.0241,6.0236,6.0252,6.0231,6.0274,6.0225,6.0285,6.0244,6.026,6.0261,6.0265,6.027,6.0216,6.0307,6.045,6.0466,6.0273,6.0271,6.027,0,6.0111,6.016,6.0215,6.0225,6.0236,6.0262,6.0267,6.0277,6.0296,6.0316,6.0328,6.0353,6.0368,6.0388,6.0374,6.0339,6.0438,6.0387,6.0437,6.0438,6.0462,6.0461,6.0613,6.0468,6.0467,6.0467,6.0467,0,6.0223,6.0273,6.0258,6.0292,6.0348,6.0328,6.0384,6.0385,6.0395,6.0429,6.0398,6.0431,6.0409,6.044,6.0428,6.0483,6.0488,6.0487,6.0484,6.0492,6.0492,6.0504,6.0498,6.0471,6.047,6.0469,6.0469,0,6.0338,6.0329,6.0387,6.0393,6.0396,6.0438,6.0443,6.0475,6.047,6.0513,6.0522,6.0514,6.0549,6.0537,6.0572,6.0565,6.0635,6.0621,6.0632,6.063,6.0682,6.0679,6.085,6.0872,6.0709,6.0711,6.0712,0,6.0411,6.045,6.0461,6.0482,6.0491,6.0525,6.0544,6.0526,6.0547,6.0566,6.0596,6.0628,6.0653,6.071,6.0708,6.0736,6.0725,6.0782,6.0729,6.0736,6.073,6.0729,6.0734,6.0794,6.0796,6.0798,6.0799,0,6.0543,6.0538,6.0567,6.0596,6.062,6.0641,6.0659,6.0678,6.0661,6.0686,6.0723,6.0742,6.0781,6.0814,6.0839,6.0844,6.082,6.0815,6.0829,6.0839,6.0845,6.0846,6.0665,6.0812,6.0811,6.081,6.0809,6.0809,6.0642,6.0676,6.069,6.0725,6.0737,6.0755,6.0787,6.0786,6.0817,6.0848,6.0835,6.0877,6.089,6.0922,6.0931,6.0964,6.0942,6.0961,6.0966,6.0972,6.0981,6.0838,6.0968,6.0968,6.0967,6.0967,6.0967,0,6.0776,6.0784,6.0815,6.0843,6.0871,6.0845,6.0865,6.0889,6.0927,6.0942,6.0968,6.1011,6.1043,6.1044,6.1074,6.11,6.109,6.1109,6.1109,6.1111,6.0997,6.0984,6.1117,6.1117,6.1117,6.1117,6.1117,6.1117,6.0849,6.0906,6.0903,6.0966,6.0973,6.1016,6.103,6.1047,6.1059,6.1108,6.1136,6.1136,6.1146,6.1177,6.1206,6.1205,6.1219,6.1243,6.1239,6.1133,6.1118,6.1104,6.1092,6.1246,6.1246,6.135,6.1351,6.1352]}]]